TimeCDT,TemperatureF,Dew PointF,Humidity,Sea Level PressureIn,VisibilityMPH,Wind Direction,Wind SpeedMPH,Gust SpeedMPH,PrecipitationIn,Events,Conditions,WindDirDegrees,DateUTC
12:53 AM,72.0,68.0,87,30.05,8.0,South,3.5,-,N/A,,Clear,170,2013-08-28 05:53:00
1:53 AM,72.0,68.0,87,30.04,8.0,Calm,Calm,-,N/A,,Clear,0,2013-08-28 06:53:00
2:53 AM,72.0,68.0,87,30.03,7.0,Calm,Calm,-,N/A,,Clear,0,2013-08-28 07:53:00
3:53 AM,70.0,68.0,93,30.03,7.0,Calm,Calm,-,N/A,,Clear,0,2013-08-28 08:53:00
4:53 AM,70.0,66.9,90,30.05,7.0,Calm,Calm,-,N/A,,Scattered Clouds,0,2013-08-28 09:53:00
5:53 AM,69.1,66.9,93,30.06,8.0,South,3.5,-,N/A,,Partly Cloudy,170,2013-08-28 10:53:00
6:53 AM,69.1,66.9,93,30.08,6.0,South,3.5,-,N/A,,Haze,180,2013-08-28 11:53:00
7:53 AM,73.9,69.1,85,30.07,8.0,Calm,Calm,-,N/A,,Partly Cloudy,0,2013-08-28 12:53:00
8:44 AM,78.8,69.8,74,30.09,0.8,West,5.8,-,N/A,,Haze,260,2013-08-28 13:44:00
8:47 AM,80.6,69.8,70,30.09,9.0,WNW,4.6,-,N/A,,Partly Cloudy,290,2013-08-28 13:47:00
8:53 AM,81.0,69.1,67,30.07,9.0,Variable,4.6,-,N/A,,Partly Cloudy,0,2013-08-28 13:53:00
9:53 AM,84.0,68.0,58,30.07,10.0,WNW,5.8,-,N/A,,Scattered Clouds,300,2013-08-28 14:53:00
10:53 AM,86.0,69.1,57,30.06,10.0,West,5.8,-,N/A,,Mostly Cloudy,260,2013-08-28 15:53:00
11:53 AM,88.0,69.1,53,30.06,10.0,West,6.9,-,N/A,,Mostly Cloudy,280,2013-08-28 16:53:00
12:53 PM,90.0,69.1,50,30.05,10.0,WNW,6.9,-,N/A,,Mostly Cloudy,290,2013-08-28 17:53:00
1:53 PM,90.0,68.0,48,30.03,10.0,West,6.9,-,N/A,,Mostly Cloudy,270,2013-08-28 18:53:00
2:53 PM,91.0,66.9,45,30.02,10.0,WNW,5.8,-,N/A,,Mostly Cloudy,300,2013-08-28 19:53:00
3:53 PM,91.0,66.0,44,30.01,10.0,West,8.1,-,N/A,,Mostly Cloudy,280,2013-08-28 20:53:00
4:53 PM,91.0,66.0,44,30.00,10.0,WNW,10.4,-,N/A,,Scattered Clouds,290,2013-08-28 21:53:00
5:53 PM,89.1,68.0,50,30.00,10.0,WNW,8.1,-,N/A,,Scattered Clouds,290,2013-08-28 22:53:00
6:53 PM,87.1,66.9,51,30.00,10.0,Variable,5.8,-,N/A,,Partly Cloudy,0,2013-08-28 23:53:00
7:53 PM,84.0,68.0,58,30.01,10.0,WNW,5.8,-,N/A,,Clear,290,2013-08-29 00:53:00
8:53 PM,82.0,70.0,67,30.02,10.0,West,3.5,-,N/A,,Clear,280,2013-08-29 01:53:00
9:53 PM,80.1,71.1,74,30.02,10.0,West,3.5,-,N/A,,Clear,260,2013-08-29 02:53:00
10:53 PM,79.0,70.0,74,30.02,10.0,WNW,4.6,-,N/A,,Clear,290,2013-08-29 03:53:00
11:53 PM,78.1,70.0,76,30.01,10.0,West,3.5,-,N/A,,Clear,260,2013-08-29 04:53:00